Wind_Speed
19 18 17 16 16 17 18 19 20 18 18 18 20 21 21 22 23 24 25 27 28 29 30 32 34 34 35 36 38 38 39 41 41 41 41 42 42 41 41 40 41 41 41 41
19 18 17 17 17 18 18 19 20 19 17 18 20 21 22 23 24 24 25 25 26 27 29 30 32 32 33 34 35 36 38 39 40 40 40 40 39 40 39 39 39 39 40 40
20 19 18 18 18 19 18 19 19 19 18 19 20 21 21 22 23 25 25 26 27 28 29 29 30 31 32 32 33 34 36 37 37 38 38 39 39 39 39 39 39 39 40 40
19 19 18 17 18 18 19 19 18 18 19 19 20 21 21 22 23 23 24 26 28 28 28 29 30 31 31 32 32 33 34 35 36 36 36 37 38 38 39 39 39 39 39 39
19 19 19 17 18 18 18 18 18 19 20 20 20 21 22 22 23 24 24 25 26 28 28 29 29 30 30 31 31 32 32 33 35 35 36 36 37 37 37 37 38 38 38 39
19 19 19 17 17 17 18 18 18 19 20 20 20 20 21 22 23 24 24 25 26 27 28 29 29 29 29 30 31 31 31 32 33 34 35 35 34 34 35 36 37 37 37 36
18 19 18 17 17 17 17 17 18 19 20 20 21 21 21 22 23 24 24 24 24 25 27 28 28 29 30 30 29 30 30 31 31 32 32 33 33 33 33 34 35 35 36 36
19 19 18 17 17 17 17 17 18 19 20 21 21 21 21 22 23 23 24 24 24 23 24 26 27 28 29 29 29 30 30 31 31 31 31 31 31 32 33 34 34 34 34 35
19 19 18 18 17 17 17 18 18 19 20 21 21 21 21 21 22 22 23 24 24 24 24 25 26 27 28 28 29 29 30 30 31 31 30 31 31 31 31 32 33 34 33 33
19 19 19 18 18 17 17 18 18 19 19 20 21 21 21 21 20 21 22 23 24 24 25 26 27 27 27 27 28 29 30 30 31 31 31 31 31 32 32 32 33 33 33 33
19 19 19 18 18 18 17 18 18 18 19 20 20 20 20 21 21 21 22 22 23 23 24 24 26 26 27 27 28 29 30 30 30 30 30 30 30 30 30 31 32 32 32 32
19 19 18 17 17 17 17 18 18 18 18 18 19 19 20 20 21 21 22 22 22 22 23 23 25 26 27 27 28 29 29 29 29 29 29 29 29 30 30 30 30 31 31 31
19 18 17 17 17 18 18 18 17 17 17 17 17 18 19 19 20 21 22 23 23 23 23 23 24 26 27 27 28 28 29 30 30 30 29 29 29 29 29 29 29 30 30 30
18 17 16 17 17 17 17 17 17 16 17 17 17 17 18 18 19 20 21 22 23 24 24 24 24 25 26 26 27 28 29 29 30 30 29 29 29 28 28 28 28 28 28 28
16 16 16 16 16 16 16 16 16 16 16 17 17 18 18 18 19 19 20 21 22 22 23 23 23 23 24 25 26 26 26 27 28 29 29 29 28 28 27 27 27 27 27 27
15 15 15 15 15 16 16 16 16 17 17 16 17 17 18 18 18 18 18 19 20 20 21 22 23 23 24 25 25 26 26 26 27 28 28 28 27 27 27 26 27 27 27 27
16 16 16 16 16 16 16 16 16 16 17 17 17 17 17 18 18 18 18 19 19 19 20 20 21 22 23 22 23 24 25 26 26 26 26 27 27 28 27 27 27 26 26 26
17 16 16 16 17 17 17 17 16 16 17 17 17 18 18 18 18 18 18 18 19 19 20 20 20 21 21 21 21 22 24 25 25 25 26 26 26 27 27 27 27 26 26 26
17 17 16 17 17 17 17 17 17 17 17 17 17 18 18 18 18 18 18 18 18 18 19 19 20 21 21 21 21 21 22 23 24 24 25 25 25 26 26 26 26 26 26 26
18 17 17 17 18 18 18 18 18 18 18 18 18 18 18 18 18 17 18 17 18 18 18 19 20 21 21 21 21 21 22 22 23 23 24 24 24 25 25 25 26 26 25 25
17 17 18 18 18 19 19 19 19 18 18 18 18 18 18 18 18 18 17 17 18 18 19 19 19 20 20 21 21 21 21 22 23 23 24 24 24 24 25 25 25 25 25 24
18 18 18 18 18 19 19 18 18 18 18 18 19 19 19 19 18 18 18 18 18 18 18 18 18 19 20 20 20 20 20 21 21 22 23 24 25 24 24 24 24 24 24 23
18 18 18 18 18 18 18 18 18 18 18 18 18 18 19 19 18 18 17 17 17 17 17 17 17 18 19 19 19 19 19 20 21 21 22 23 24 24 24 23 23 22 22 22
18 18 19 19 19 19 18 18 18 18 17 17 18 18 17 17 17 17 16 16 16 16 16 16 16 17 17 18 18 18 19 19 20 20 21 22 22 22 22 21 21 21 21 21
19 19 19 19 19 18 18 18 18 18 18 17 17 17 16 16 15 16 15 15 16 16 16 16 16 16 17 17 18 18 18 19 19 19 20 20 21 21 21 20 20 20 20 21
18 18 18 18 18 17 17 17 18 18 17 17 16 16 15 14 14 15 14 14 14 14 14 15 15 15 16 16 17 17 18 18 18 19 20 20 21 21 21 20 20 21 20 20
18 17 17 17 17 17 17 17 17 17 16 15 15 14 14 13 13 14 14 13 13 13 13 13 13 14 14 15 15 16 17 17 18 18 19 19 20 20 20 20 20 21 20 20
Wind_Direction
297 294 290 285 277 273 272 270 268 265 259 255 253 251 251 249 248 248 248 248 249 248 246 245 244 242 241 241 241 242 241 241 241 242 242 243 245 247 247 248 248 251 251 250
297 294 287 282 274 272 273 271 268 263 257 255 254 254 254 253 251 250 250 250 248 248 246 244 243 242 243 243 242 241 240 240 240 242 243 244 246 247 247 247 248 250 250 249
298 295 287 280 275 272 273 274 269 263 258 256 256 256 257 255 253 252 251 253 251 250 247 244 243 242 242 242 242 240 238 238 239 240 241 243 246 247 247 248 248 250 250 249
301 298 292 287 280 276 275 274 268 264 259 256 256 257 256 256 255 256 253 254 253 250 246 244 243 242 242 241 240 239 239 238 239 241 242 244 247 248 249 249 249 250 249 249
302 299 296 289 284 278 276 273 269 265 262 259 258 257 256 256 255 256 256 255 252 248 245 244 243 242 241 240 241 241 240 240 240 241 241 243 245 247 248 250 250 249 248 249
301 299 298 294 287 282 278 275 271 267 264 259 258 258 257 256 255 256 257 256 252 246 243 243 243 242 240 240 241 242 241 241 241 240 241 243 245 246 248 249 249 249 249 250
300 300 299 295 288 285 282 277 273 269 265 261 259 259 259 257 257 257 257 255 251 247 244 243 242 241 240 240 242 242 241 241 241 240 242 244 245 246 246 247 248 249 249 250
297 300 300 297 291 284 282 279 275 271 269 266 265 263 262 261 260 258 256 254 251 249 245 242 240 240 240 241 241 242 241 241 241 242 243 244 246 248 248 248 248 248 250 252
296 297 298 296 292 285 281 278 275 273 271 268 268 267 266 264 262 258 255 254 254 251 249 245 242 241 242 243 242 241 242 242 242 242 243 245 246 248 248 248 249 250 252 253
295 293 293 292 290 287 283 280 278 276 274 271 269 269 267 265 262 259 255 255 254 251 250 247 245 243 242 243 242 241 241 242 243 243 244 245 247 248 248 248 249 250 252 253
293 290 288 287 285 285 285 281 280 281 279 276 271 268 267 265 262 260 256 255 253 251 250 248 246 244 244 245 244 242 241 241 242 242 243 244 245 246 247 247 247 248 250 253
292 288 286 285 282 282 285 285 285 282 280 277 273 270 268 266 264 263 260 257 252 249 248 247 245 244 244 246 246 244 243 243 243 243 243 243 245 247 248 247 247 248 250 250
289 286 284 282 281 282 284 287 289 285 281 277 275 273 270 268 267 265 262 259 254 250 249 248 247 247 246 245 244 244 243 243 243 243 244 245 245 246 247 248 248 249 250 249
289 285 284 282 282 282 284 287 287 285 283 280 277 276 274 271 271 269 265 259 255 252 251 251 251 250 247 245 244 245 244 243 242 243 244 244 244 244 245 246 247 249 249 250
289 284 283 281 280 281 283 286 287 286 285 283 280 278 277 275 273 272 269 263 258 254 251 249 249 250 249 247 244 244 243 242 242 242 242 243 242 242 242 244 245 247 247 249
291 286 282 281 281 282 282 283 285 285 285 285 281 278 279 279 277 274 271 266 260 256 253 251 248 248 249 248 245 244 244 243 243 242 241 241 241 241 242 243 244 247 247 248
290 287 283 281 282 283 284 285 285 285 285 285 283 281 281 281 279 276 271 267 263 258 254 252 250 248 247 246 245 244 243 243 243 242 241 241 241 241 242 242 244 245 246 247
288 286 283 279 279 282 284 287 287 287 287 286 284 283 283 281 279 276 272 267 264 259 254 251 248 247 246 244 245 244 244 243 242 241 240 240 240 241 242 242 243 244 247 249
285 283 281 279 278 280 284 287 287 288 290 290 287 284 283 281 279 275 271 268 265 260 255 251 248 247 247 246 247 247 244 242 241 241 240 240 240 240 241 242 243 245 248 249
284 282 281 280 279 280 283 286 288 288 288 289 287 285 284 281 278 275 271 267 264 262 259 256 252 249 248 246 247 246 244 241 240 239 239 239 239 240 241 243 245 246 247 249
285 282 281 281 280 281 284 287 289 289 289 287 285 284 282 281 277 274 270 268 265 263 259 257 254 251 249 248 246 245 243 240 239 239 239 239 239 240 241 242 243 244 246 248
286 283 282 282 281 282 284 287 290 290 290 288 286 283 281 280 278 274 269 268 267 264 260 257 255 251 249 248 247 245 243 241 240 239 239 239 239 239 240 241 241 242 244 244
288 286 283 283 283 283 284 286 289 291 290 289 287 284 281 279 278 274 270 267 266 264 260 257 256 253 249 247 246 245 244 242 240 239 239 238 237 237 239 241 241 240 239 240
290 288 286 284 283 282 283 286 290 292 292 292 289 287 284 280 277 274 271 268 266 263 260 258 258 255 250 246 245 245 244 242 240 240 240 238 237 237 239 241 239 236 235 235
290 288 287 286 284 283 284 286 289 291 291 290 289 287 284 280 275 272 272 270 267 265 262 258 258 256 252 247 245 244 243 241 241 242 240 237 236 236 237 238 236 232 230 230
291 288 287 286 285 284 283 285 287 288 289 288 286 284 282 280 275 272 271 272 269 265 262 259 258 256 252 248 245 244 243 243 243 241 239 237 235 234 234 234 232 227 226 227
291 288 286 287 286 285 284 285 285 285 285 285 285 283 281 279 275 274 273 271 269 266 262 260 259 256 249 246 244 244 243 243 242 240 238 236 234 232 230 229 227 223 222 223
Height
5579 5577 5575 5574 5574 5572 5571 5571 5571 5572 5571 5572 5572 5573 5574 5575 5577 5578 5580 5582 5583 5585 5587 5590 5593 5596 5599 5602 5606 5609 5613 5617 5620 5624 5627 5630 5633 5637 5640 5643 5646 5649 5651 5654
5574 5572 5570 5569 5569 5567 5566 5566 5565 5565 5567 5566 5566 5567 5568 5569 5570 5572 5573 5575 5576 5578 5579 5582 5584 5587 5590 5594 5597 5600 5604 5608 5611 5615 5618 5621 5624 5627 5630 5633 5636 5639 5642 5645
5569 5567 5565 5564 5564 5562 5561 5560 5560 5560 5562 5561 5561 5562 5563 5563 5564 5565 5566 5568 5569 5570 5572 5574 5576 5579 5582 5585 5588 5592 5595 5599 5602 5606 5609 5612 5615 5618 5621 5624 5627 5630 5632 5635
5563 5562 5560 5562 5558 5556 5556 5555 5554 5554 5555 5555 5556 5556 5556 5557 5558 5559 5560 5561 5561 5563 5564 5567 5569 5571 5574 5577 5580 5583 5586 5590 5593 5597 5600 5603 5606 5609 5612 5614 5617 5620 5623 5626
5558 5556 5555 5555 5552 5551 5550 5550 5549 5549 5549 5549 5549 5550 5550 5551 5551 5552 5552 5553 5554 5556 5557 5559 5562 5564 5566 5569 5572 5575 5578 5581 5585 5588 5591 5594 5597 5600 5603 5605 5608 5611 5613 5616
5553 5550 5550 5550 5547 5545 5545 5545 5544 5543 5543 5543 5543 5544 5545 5545 5545 5545 5546 5546 5547 5548 5550 5552 5554 5557 5559 5562 5565 5568 5570 5573 5576 5580 5583 5586 5589 5591 5594 5596 5599 5601 5604 5607
5548 5545 5544 5544 5542 5540 5541 5540 5538 5537 5537 5537 5537 5538 5538 5538 5538 5538 5539 5539 5540 5541 5543 5545 5547 5550 5552 5555 5558 5560 5563 5566 5569 5572 5575 5577 5580 5583 5585 5588 5590 5592 5595 5598
5543 5541 5542 5538 5536 5536 5535 5533 5532 5531 5531 5531 5531 5531 5531 5531 5531 5532 5532 5533 5533 5535 5536 5538 5540 5543 5545 5548 5550 5553 5555 5558 5561 5564 5567 5569 5572 5574 5576 5579 5581 5584 5586 5589
5539 5538 5535 5532 5531 5529 5528 5527 5526 5525 5525 5525 5525 5525 5525 5525 5525 5525 5526 5526 5527 5528 5529 5531 5533 5536 5538 5540 5542 5545 5547 5550 5553 5556 5559 5561 5563 5566 5568 5570 5573 5575 5578 5580
5532 5531 5529 5527 5525 5524 5522 5521 5520 5520 5519 5519 5518 5518 5519 5519 5519 5519 5519 5520 5520 5521 5522 5524 5526 5528 5530 5532 5535 5537 5540 5542 5545 5548 5550 5553 5555 5557 5560 5562 5564 5567 5569 5571
5526 5525 5523 5521 5519 5518 5516 5515 5515 5514 5513 5512 5512 5512 5512 5512 5512 5512 5512 5513 5513 5514 5515 5517 5518 5520 5523 5525 5527 5529 5532 5534 5537 5539 5541 5544 5546 5548 5551 5553 5555 5558 5560 5562
5520 5518 5516 5515 5514 5513 5511 5510 5509 5508 5507 5506 5506 5506 5505 5505 5505 5505 5505 5506 5506 5507 5508 5509 5511 5513 5515 5517 5519 5521 5524 5526 5529 5531 5533 5535 5538 5540 5542 5545 5547 5549 5551 5554
5513 5511 5510 5509 5508 5507 5506 5505 5503 5502 5501 5501 5500 5500 5499 5499 5498 5498 5498 5498 5499 5500 5501 5502 5504 5505 5507 5509 5511 5513 5516 5518 5520 5523 5525 5527 5530 5532 5534 5536 5538 5540 5543 5545
5507 5505 5504 5503 5502 5501 5500 5499 5498 5497 5496 5495 5494 5494 5493 5492 5492 5491 5491 5491 5492 5493 5494 5495 5496 5498 5499 5501 5503 5505 5507 5510 5512 5514 5517 5519 5521 5524 5526 5528 5530 5532 5535 5537
5501 5499 5498 5497 5496 5495 5494 5494 5493 5491 5490 5489 5489 5488 5487 5486 5485 5485 5485 5484 5485 5485 5486 5488 5489 5490 5492 5493 5495 5497 5499 5502 5504 5506 5508 5511 5513 5515 5518 5520 5523 5524 5527 5529
5495 5494 5493 5492 5491 5490 5489 5488 5487 5486 5485 5484 5483 5482 5481 5480 5479 5478 5478 5478 5478 5479 5479 5480 5482 5483 5484 5486 5487 5490 5492 5494 5496 5498 5500 5503 5505 5508 5510 5513 5515 5517 5520 5522
5490 5488 5487 5487 5486 5485 5484 5483 5482 5481 5479 5478 5477 5476 5475 5474 5473 5472 5472 5472 5472 5472 5473 5473 5474 5475 5477 5478 5480 5482 5484 5486 5488 5491 5493 5495 5497 5500 5502 5505 5508 5510 5512 5515
5484 5483 5482 5481 5480 5480 5479 5478 5476 5475 5474 5472 5471 5470 5469 5468 5467 5466 5466 5466 5465 5466 5466 5467 5468 5469 5470 5472 5473 5475 5477 5479 5481 5483 5485 5488 5490 5493 5495 5498 5501 5503 5505 5507
5478 5477 5476 5475 5474 5474 5473 5472 5471 5469 5468 5466 5465 5464 5463 5462 5461 5460 5460 5459 5459 5459 5460 5460 5461 5462 5464 5465 5466 5468 5470 5471 5474 5476 5478 5481 5483 5485 5488 5491 5493 5496 5498 5500
5472 5471 5470 5469 5468 5468 5467 5466 5465 5463 5462 5460 5459 5458 5457 5456 5455 5454 5453 5453 5453 5453 5454 5454 5455 5456 5457 5458 5459 5461 5462 5464 5466 5469 5471 5473 5476 5478 5481 5483 5486 5488 5490 5492
5466 5465 5464 5463 5462 5461 5460 5459 5458 5457 5456 5454 5453 5452 5451 5449 5449 5448 5447 5447 5447 5447 5447 5448 5448 5449 5450 5451 5452 5454 5455 5457 5459 5461 5464 5466 5469 5471 5474 5476 5478 5481 5483 5485
5460 5459 5458 5457 5456 5455 5454 5453 5451 5450 5449 5448 5446 5445 5444 5443 5442 5442 5441 5441 5441 5441 5441 5441 5442 5443 5443 5445 5446 5447 5449 5450 5452 5454 5456 5459 5461 5464 5466 5469 5471 5473 5476 5478
5453 5452 5451 5450 5449 5448 5447 5446 5445 5444 5442 5441 5439 5438 5437 5436 5436 5435 5435 5435 5435 5435 5435 5435 5436 5436 5437 5438 5440 5441 5442 5444 5446 5447 5449 5452 5454 5457 5460 5462 5464 5466 5469 5471
5447 5446 5444 5443 5442 5442 5441 5440 5439 5437 5436 5434 5433 5432 5431 5430 5429 5429 5429 5428 5428 5428 5429 5429 5430 5430 5431 5432 5434 5435 5436 5438 5439 5441 5443 5445 5448 5450 5453 5455 5457 5460 5462 5465
5441 5439 5438 5437 5436 5435 5434 5433 5432 5431 5430 5428 5427 5426 5425 5424 5424 5423 5423 5423 5423 5423 5423 5423 5424 5424 5425 5426 5428 5429 5430 5432 5433 5435 5437 5439 5441 5444 5446 5449 5451 5454 5456 5459
5434 5433 5432 5430 5429 5428 5428 5427 5426 5425 5424 5422 5421 5420 5419 5419 5418 5418 5418 5417 5417 5417 5417 5418 5418 5419 5420 5421 5422 5423 5425 5426 5428 5429 5431 5433 5435 5438 5440 5443 5445 5448 5451 5454
5428 5427 5425 5424 5423 5422 5421 5421 5420 5419 5418 5417 5416 5415 5414 5414 5413 5413 5413 5412 5412 5412 5413 5413 5413 5414 5414 5415 5416 5417 5419 5420 5422 5423 5425 5427 5429 5432 5435 5437 5440 5443 5446 5449